Weather History for Nassau, Bahamas

Change the Weather History Date:

Sunday, May 18, 2014

  Actual Average Record
Temperature  
Mean Temperature 26 °C -  
Max Temperature 29 °C 30 °C 32 °C (2007)
Min Temperature 24 °C 22 °C 17 °C (1998)
Cooling Degree Days 15    
Growing Degree Days 30 (Base 50)    
Moisture  
Dew Point 20 °C    
Average Humidity 69    
Maximum Humidity 94    
Minimum Humidity 55    
Precipitation  
Precipitation 0.0 mm 6.2 mm - ()
Sea Level Pressure  
Sea Level Pressure 1017.36 hPa    
Wind  
Wind Speed 19 km/h ()    
Max Wind Speed 30 km/h    
Max Gust Speed -    
Visibility 11.0 kilometers    
Events Rain    
Averages and records for this station are not official NWS values.
T = Trace of Precipitation, MM = Missing Value Source: Averaged Metar Reports

Daily Weather History Graph

Daily Weather History Graph

Search for Another Location

Airport:

Trip Planner

Search our weather history database for the weather conditions in past years. The results will help you decide how hot, cold, wet, or windy it might be!

Date:

Astronomy

May. 18, 2014 Rise Set
Actual Time 6:24 AM EDT 7:48 PM EDT
Civil Twilight 5:59 AM EDT 8:13 PM EDT
Nautical Twilight 5:29 AM EDT 8:43 PM EDT
Astronomical Twilight 4:58 AM EDT 9:14 PM EDT
Moon 11:42 PM EDT (5/18) 10:06 AM EDT (5/18)
Length of Visible Light 14h 14m
Length of Day
13h 24m
Waning Gibbous, 81% of the Moon is Illuminated
May 18
Waning Gibbous
May 21
Last Quarter
May 28
New
Jun 5
First Quarter
Jun 13
Full

Hourly Weather History & Observations

Time (EDT) Temp. Heat Index Dew Point Humidity Pressure Visibility Wind Dir Wind Speed Gust Speed Precip Events Conditions
12:00 AM 24.0 °C - 23.0 °C 94% 1016.8 hPa 9.0 km NNE 14.8 km/h / 4.1 m/s - N/A Rain Light Rain Showers
1:00 AM 25.0 °C - 20.0 °C 74% 1017.2 hPa 10.0 km NE 25.9 km/h / 7.2 m/s - N/A   Mostly Cloudy
2:00 AM 25 °C - 21 °C 74% 1017 hPa 13 km ENE 29.6 km/h /   - -   Mostly Cloudy
2:00 AM 25.0 °C - 21.0 °C 78% 1016.8 hPa 10.0 km ENE 29.6 km/h / 8.2 m/s - N/A   Mostly Cloudy
3:00 AM 25.0 °C - 20.0 °C 74% 1016.5 hPa 10.0 km ENE 27.8 km/h / 7.7 m/s - N/A   Mostly Cloudy
4:00 AM 24.0 °C - 19.0 °C 73% 1016.1 hPa 10.0 km NE 25.9 km/h / 7.2 m/s - N/A   Mostly Cloudy
5:00 AM 25 °C - 20 °C 65% 1016 hPa 13 km ENE 25.9 km/h /   - -   Partly Cloudy
5:00 AM 25.0 °C - 20.0 °C 74% 1016.1 hPa 10.0 km ENE 25.9 km/h / 7.2 m/s - N/A   Mostly Cloudy
7:00 AM 24.0 °C - 19.0 °C 73% 1017.2 hPa 10.0 km ENE 25.9 km/h / 7.2 m/s - N/A   Mostly Cloudy
8:00 AM 25 °C - 21 °C 70% 1018 hPa 13 km ENE 14.8 km/h /   - -   Partly Cloudy
8:00 AM 25.0 °C - 21.0 °C 78% - 10.0 km ENE 14.8 km/h / 4.1 m/s - N/A   Mostly Cloudy
9:00 AM 25.0 °C - 19.0 °C 69% 1018.2 hPa 10.0 km NE 18.5 km/h / 5.1 m/s - N/A   Overcast
10:00 AM 26.0 °C - 20.0 °C 69% 1018.2 hPa 10.0 km NNE 18.5 km/h / 5.1 m/s - N/A   Mostly Cloudy
11:00 AM 27 °C - 21 °C 61% 1019 hPa 15 km East 20.4 km/h /   - -   Mostly Cloudy
11:00 AM 27.0 °C 28.9 °C 21.0 °C 70% 1018.5 hPa 10.0 km East 20.4 km/h / 5.7 m/s - N/A   Mostly Cloudy
12:00 PM 27.0 °C 28.5 °C 20.0 °C 65% 1018.5 hPa 10.0 km NNE 20.4 km/h / 5.7 m/s - N/A   Scattered Clouds
1:00 PM 27.0 °C 27.9 °C 18.0 °C 58% 1018.2 hPa 10.0 km East 24.1 km/h / 6.7 m/s - N/A   Partly Cloudy
2:00 PM 28 °C - 20 °C 56% 1018 hPa 15 km NNE 20.4 km/h /   - -   Scattered Clouds
2:00 PM 28.0 °C 29.7 °C 20.0 °C 62% 1017.8 hPa 10.0 km NNE 20.4 km/h / 5.7 m/s - N/A   Scattered Clouds
3:00 PM 27.0 °C 28.2 °C 19.0 °C 61% 1017.2 hPa 10.0 km NNE 20.4 km/h / 5.7 m/s - N/A   Mostly Cloudy
4:00 PM 26.0 °C - 19.0 °C 65% 1016.8 hPa 10.0 km NE 18.5 km/h / 5.1 m/s - N/A   Mostly Cloudy
5:00 PM 27 °C - 20 °C 55% 1017 hPa 15 km NE 18.5 km/h /   - -   Partly Cloudy
6:00 PM 26.0 °C - 19.0 °C 65% 1016.5 hPa 10.0 km NE 16.7 km/h / 4.6 m/s - N/A   Mostly Cloudy
7:00 PM 25.0 °C - 19.0 °C 69% 1016.5 hPa 10.0 km NNE 20.4 km/h / 5.7 m/s - N/A   Mostly Cloudy
8:00 PM 25 °C - 20 °C 65% 1017 hPa 15 km ENE 11.1 km/h /   - -   Partly Cloudy
8:00 PM 25.0 °C - 20.0 °C 74% 1016.8 hPa 10.0 km ENE 11.1 km/h / 3.1 m/s - N/A   Mostly Cloudy
9:00 PM 25.0 °C - 19.0 °C 69% 1017.5 hPa 10.0 km NE 22.2 km/h / 6.2 m/s - N/A   Mostly Cloudy
10:00 PM 24.0 °C - 19.0 °C 73% 1018.2 hPa 10.0 km NE 13.0 km/h / 3.6 m/s - N/A   Scattered Clouds
11:00 PM 25.0 °C - 19.0 °C 69% 1018.5 hPa 10.0 km ENE 18.5 km/h / 5.1 m/s - N/A   Mostly Cloudy